Time,TemperatureF,DewpointF,PressureIn,WindDirection,WindDirectionDegrees,WindSpeedMPH,WindSpeedGustMPH,Humidity,HourlyPrecipIn,Conditions,Clouds,dailyrainin,SoftwareType,DateUTC
2013-03-22 00:00:00,25.9,20.6,29.80,WSW,255,1.0,6.0,80,0.00,,,0.00,Wunderground v.1.15,2013-03-22 04:00:00,
2013-03-22 00:10:00,25.9,20.6,29.80,WSW,237,2.0,2.0,80,0.00,,,0.00,Wunderground v.1.15,2013-03-22 04:10:00,
2013-03-22 00:15:00,25.9,20.9,29.80,WSW,249,2.0,2.0,81,0.00,,,0.00,Wunderground v.1.15,2013-03-22 04:15:00,
2013-03-22 00:25:00,25.8,21.1,29.80,West,263,2.0,2.0,82,0.00,,,0.00,Wunderground v.1.15,2013-03-22 04:25:00,
2013-03-22 00:35:00,25.7,21.3,29.80,West,271,2.0,2.0,83,0.00,,,0.00,Wunderground v.1.15,2013-03-22 04:35:00,
2013-03-22 00:40:00,25.5,21.3,29.80,SW,217,2.0,4.0,84,0.00,,,0.00,Wunderground v.1.15,2013-03-22 04:40:00,
2013-03-22 00:50:00,25.4,21.5,29.80,WSW,243,2.0,2.0,85,0.00,,,0.00,Wunderground v.1.15,2013-03-22 04:50:00,
2013-03-22 00:55:00,25.4,21.8,29.80,WNW,300,2.0,2.0,86,0.00,,,0.00,Wunderground v.1.15,2013-03-22 04:55:00,
2013-03-22 01:05:00,25.5,21.9,29.80,SSW,204,1.0,1.0,86,0.00,,,0.00,Wunderground v.1.15,2013-03-22 05:05:00,
2013-03-22 01:10:00,25.5,21.9,29.80,SW,224,2.0,2.0,86,0.00,,,0.00,Wunderground v.1.15,2013-03-22 05:10:00,
2013-03-22 01:15:00,25.5,21.9,29.80,WNW,291,2.0,2.0,86,0.00,,,0.00,Wunderground v.1.15,2013-03-22 05:15:00,
2013-03-22 01:25:00,25.4,22.1,29.80,WNW,288,2.0,5.0,87,0.00,,,0.00,Wunderground v.1.15,2013-03-22 05:25:00,
2013-03-22 01:30:00,25.3,22.2,29.80,SW,219,2.0,2.0,88,0.00,,,0.00,Wunderground v.1.15,2013-03-22 05:30:00,
2013-03-22 01:35:00,25.2,22.1,29.80,WSW,252,2.0,2.0,88,0.00,,,0.00,Wunderground v.1.15,2013-03-22 05:35:00,
2013-03-22 01:40:00,25.1,22.0,29.80,West,259,2.0,4.0,88,0.00,,,0.00,Wunderground v.1.15,2013-03-22 05:40:00,
2013-03-22 01:50:00,25.0,22.2,29.80,WSW,244,2.0,4.0,89,0.00,,,0.00,Wunderground v.1.15,2013-03-22 05:50:00,
2013-03-22 02:00:00,25.0,22.2,29.80,WSW,249,2.0,2.0,89,0.00,,,0.00,Wunderground v.1.15,2013-03-22 06:00:00,
2013-03-22 02:10:00,25.0,22.2,29.80,West,268,1.0,3.0,89,0.00,,,0.00,Wunderground v.1.15,2013-03-22 06:10:00,
2013-03-22 02:15:00,25.0,22.5,29.80,West,259,2.0,3.0,90,0.00,,,0.00,Wunderground v.1.15,2013-03-22 06:15:00,
2013-03-22 02:25:00,25.0,22.5,29.80,WSW,239,1.0,4.0,90,0.00,,,0.00,Wunderground v.1.15,2013-03-22 06:25:00,
2013-03-22 02:30:00,25.0,22.2,29.80,SW,236,2.0,2.0,89,0.00,,,0.00,Wunderground v.1.15,2013-03-22 06:30:00,
2013-03-22 02:40:00,25.0,22.2,29.80,WSW,253,2.0,2.0,89,0.00,,,0.00,Wunderground v.1.15,2013-03-22 06:40:00,
2013-03-22 02:50:00,25.0,22.2,29.80,WNW,288,2.0,3.0,89,0.00,,,0.00,Wunderground v.1.15,2013-03-22 06:50:00,
2013-03-22 02:55:00,25.0,22.2,29.80,WNW,290,2.0,4.0,89,0.00,,,0.00,Wunderground v.1.15,2013-03-22 06:55:00,
2013-03-22 03:05:00,24.8,22.0,29.80,WSW,246,3.0,3.0,89,0.00,,,0.00,Wunderground v.1.15,2013-03-22 07:05:00,
2013-03-22 03:15:00,24.8,22.0,29.80,SSW,193,2.0,2.0,89,0.00,,,0.00,Wunderground v.1.15,2013-03-22 07:15:00,
2013-03-22 03:20:00,24.8,22.3,29.80,West,266,2.0,3.0,90,0.00,,,0.00,Wunderground v.1.15,2013-03-22 07:20:00,
2013-03-22 03:30:00,24.8,22.3,29.80,WNW,288,3.0,5.0,90,0.00,,,0.00,Wunderground v.1.15,2013-03-22 07:30:00,
2013-03-22 03:40:00,24.8,22.3,29.80,SW,227,3.0,3.0,90,0.00,,,0.00,Wunderground v.1.15,2013-03-22 07:40:00,
2013-03-22 03:45:00,24.7,22.2,29.80,WNW,288,2.0,3.0,90,0.00,,,0.00,Wunderground v.1.15,2013-03-22 07:45:00,
2013-03-22 03:55:00,24.6,22.1,29.79,WSW,244,2.0,2.0,90,0.00,,,0.00,Wunderground v.1.15,2013-03-22 07:55:00,
2013-03-22 04:05:00,24.7,22.2,29.80,NE,56,2.0,3.0,90,0.00,,,0.00,Wunderground v.1.15,2013-03-22 08:05:00,
2013-03-22 04:10:00,24.8,22.3,29.79,SW,226,3.0,3.0,90,0.00,,,0.00,Wunderground v.1.15,2013-03-22 08:10:00,
2013-03-22 04:20:00,24.8,22.3,29.79,WNW,287,2.0,2.0,90,0.00,,,0.00,Wunderground v.1.15,2013-03-22 08:20:00,
2013-03-22 04:25:00,24.8,22.3,29.79,WSW,247,2.0,2.0,90,0.00,,,0.00,Wunderground v.1.15,2013-03-22 08:25:00,
2013-03-22 04:35:00,25.0,22.5,29.79,SSW,212,2.0,5.0,90,0.00,,,0.00,Wunderground v.1.15,2013-03-22 08:35:00,
2013-03-22 04:40:00,25.1,22.3,29.79,WSW,256,3.0,3.0,89,0.00,,,0.00,Wunderground v.1.15,2013-03-22 08:40:00,
2013-03-22 04:50:00,25.4,22.3,29.79,SW,224,4.0,4.0,88,0.00,,,0.00,Wunderground v.1.15,2013-03-22 08:50:00,
2013-03-22 04:55:00,25.5,22.4,29.79,WSW,255,4.0,4.0,88,0.00,,,0.00,Wunderground v.1.15,2013-03-22 08:55:00,
2013-03-22 05:00:00,25.4,22.3,29.79,WSW,245,3.0,4.0,88,0.00,,,0.00,Wunderground v.1.15,2013-03-22 09:00:00,
2013-03-22 05:10:00,25.4,22.1,29.79,West,267,4.0,7.0,87,0.00,,,0.00,Wunderground v.1.15,2013-03-22 09:10:00,
2013-03-22 05:20:00,25.4,22.1,29.79,West,261,3.0,3.0,87,0.00,,,0.00,Wunderground v.1.15,2013-03-22 09:20:00,
2013-03-22 05:30:00,25.5,22.4,29.79,WNW,290,2.0,2.0,88,0.00,,,0.00,Wunderground v.1.15,2013-03-22 09:30:00,
2013-03-22 05:35:00,25.5,22.4,29.79,ENE,73,3.0,3.0,88,0.00,,,0.00,Wunderground v.1.15,2013-03-22 09:35:00,
2013-03-22 05:45:00,25.5,22.4,29.79,ESE,102,3.0,3.0,88,0.00,,,0.00,Wunderground v.1.15,2013-03-22 09:45:00,
2013-03-22 05:55:00,25.6,22.5,29.79,NNE,28,4.0,4.0,88,0.00,,,0.00,Wunderground v.1.15,2013-03-22 09:55:00,
2013-03-22 06:05:00,25.7,22.6,29.79,North,355,3.0,4.0,88,0.00,,,0.00,Wunderground v.1.15,2013-03-22 10:05:00,
2013-03-22 06:10:00,25.7,22.6,29.79,West,274,2.0,2.0,88,0.00,,,0.00,Wunderground v.1.15,2013-03-22 10:10:00,
2013-03-22 06:20:00,25.7,22.6,29.79,SW,229,3.0,3.0,88,0.00,,,0.00,Wunderground v.1.15,2013-03-22 10:20:00,
2013-03-22 06:25:00,25.7,22.6,29.80,SW,223,3.0,3.0,88,0.00,,,0.00,Wunderground v.1.15,2013-03-22 10:25:00,
2013-03-22 06:30:00,25.8,22.5,29.80,WSW,249,2.0,2.0,87,0.00,,,0.00,Wunderground v.1.15,2013-03-22 10:30:00,
2013-03-22 06:40:00,25.9,22.6,29.80,SW,221,3.0,3.0,87,0.00,,,0.00,Wunderground v.1.15,2013-03-22 10:40:00,
2013-03-22 06:50:00,26.0,22.7,29.80,WSW,248,3.0,3.0,87,0.00,,,0.00,Wunderground v.1.15,2013-03-22 10:50:00,
2013-03-22 06:55:00,26.0,22.4,29.80,WSW,240,4.0,4.0,86,0.00,,,0.00,Wunderground v.1.15,2013-03-22 10:55:00,
2013-03-22 07:00:00,26.0,22.4,29.81,SW,215,4.0,4.0,86,0.00,,,0.00,Wunderground v.1.15,2013-03-22 11:00:00,
2013-03-22 07:10:00,26.1,22.5,29.81,SW,235,2.0,5.0,86,0.00,,,0.00,Wunderground v.1.15,2013-03-22 11:10:00,
2013-03-22 07:20:00,26.0,22.7,29.81,SW,219,3.0,4.0,87,0.00,,,0.00,Wunderground v.1.15,2013-03-22 11:20:00,
2013-03-22 07:30:00,25.8,22.7,29.82,SW,215,3.0,3.0,88,0.00,,,0.00,Wunderground v.1.15,2013-03-22 11:30:00,
2013-03-22 07:35:00,25.7,22.6,29.82,SSW,204,3.0,3.0,88,0.00,,,0.00,Wunderground v.1.15,2013-03-22 11:35:00,
2013-03-22 07:45:00,25.7,22.6,29.83,WNW,298,3.0,9.0,88,0.00,,,0.00,Wunderground v.1.15,2013-03-22 11:45:00,
2013-03-22 07:55:00,25.7,22.6,29.83,WSW,246,3.0,4.0,88,0.00,,,0.00,Wunderground v.1.15,2013-03-22 11:55:00,
2013-03-22 08:01:00,25.8,22.7,29.83,West,269,3.0,4.0,88,0.00,,,0.00,Wunderground v.1.15,2013-03-22 12:01:00,
2013-03-22 08:10:00,25.7,22.6,29.83,WSW,238,3.0,3.0,88,0.00,,,0.00,Wunderground v.1.15,2013-03-22 12:10:00,
2013-03-22 08:15:00,25.8,23.0,29.83,WNW,301,3.0,7.0,89,0.00,,,0.00,Wunderground v.1.15,2013-03-22 12:15:00,
2013-03-22 08:25:00,25.9,22.8,29.83,WNW,285,3.0,3.0,88,0.00,,,0.00,Wunderground v.1.15,2013-03-22 12:25:00,
2013-03-22 08:30:00,26.1,22.8,29.83,West,280,3.0,4.0,87,0.00,,,0.00,Wunderground v.1.15,2013-03-22 12:30:00,
2013-03-22 08:35:00,26.3,23.0,29.83,NW,319,3.0,4.0,87,0.00,,,0.00,Wunderground v.1.15,2013-03-22 12:35:00,
2013-03-22 08:45:00,26.4,22.8,29.83,SW,226,4.0,9.0,86,0.00,,,0.00,Wunderground v.1.15,2013-03-22 12:45:00,
2013-03-22 08:55:00,26.5,22.9,29.84,WSW,248,3.0,4.0,86,0.00,,,0.00,Wunderground v.1.15,2013-03-22 12:55:00,
2013-03-22 09:05:00,26.4,23.1,29.84,West,267,4.0,4.0,87,0.00,,,0.00,Wunderground v.1.15,2013-03-22 13:05:00,
2013-03-22 09:10:00,26.4,23.3,29.84,NW,305,3.0,3.0,88,0.00,,,0.00,Wunderground v.1.15,2013-03-22 13:10:00,
2013-03-22 09:20:00,26.4,23.6,29.84,SSW,200,3.0,3.0,89,0.00,,,0.00,Wunderground v.1.15,2013-03-22 13:20:00,
2013-03-22 09:25:00,26.5,23.7,29.84,WNW,285,3.0,3.0,89,0.00,,,0.00,Wunderground v.1.15,2013-03-22 13:25:00,
2013-03-22 09:35:00,26.8,24.0,29.85,WSW,239,3.0,3.0,89,0.00,,,0.00,Wunderground v.1.15,2013-03-22 13:35:00,
2013-03-22 09:45:00,27.1,24.3,29.85,SW,215,3.0,3.0,89,0.00,,,0.00,Wunderground v.1.15,2013-03-22 13:45:00,
2013-03-22 09:50:00,27.3,24.2,29.85,SSW,206,2.0,2.0,88,0.00,,,0.00,Wunderground v.1.15,2013-03-22 13:50:00,
2013-03-22 10:00:00,27.4,24.3,29.85,SSW,212,2.0,2.0,88,0.00,,,0.00,Wunderground v.1.15,2013-03-22 14:00:00,
2013-03-22 10:10:00,27.5,24.4,29.86,SW,232,2.0,3.0,88,0.00,,,0.00,Wunderground v.1.15,2013-03-22 14:10:00,
2013-03-22 10:15:00,27.4,24.3,29.86,SW,220,3.0,6.0,88,0.00,,,0.00,Wunderground v.1.15,2013-03-22 14:15:00,
2013-03-22 10:25:00,27.3,24.2,29.86,West,264,3.0,6.0,88,0.00,,,0.00,Wunderground v.1.15,2013-03-22 14:25:00,
2013-03-22 10:30:00,27.3,24.2,29.86,WSW,242,4.0,4.0,88,0.00,,,0.00,Wunderground v.1.15,2013-03-22 14:30:00,
2013-03-22 10:40:00,27.4,24.0,29.86,SW,235,3.0,4.0,87,0.00,,,0.00,Wunderground v.1.15,2013-03-22 14:40:00,
2013-03-22 10:45:00,27.5,24.1,29.86,West,271,3.0,4.0,87,0.00,,,0.00,Wunderground v.1.15,2013-03-22 14:45:00,
2013-03-22 10:55:00,28.0,24.6,29.86,West,281,2.0,3.0,87,0.00,,,0.00,Wunderground v.1.15,2013-03-22 14:55:00,
2013-03-22 11:00:00,27.9,24.5,29.86,South,183,2.0,2.0,87,0.00,,,0.00,Wunderground v.1.15,2013-03-22 15:00:00,
2013-03-22 11:10:00,28.1,24.7,29.86,NW,322,2.0,2.0,87,0.00,,,0.00,Wunderground v.1.15,2013-03-22 15:10:00,
2013-03-22 11:15:00,28.3,24.9,29.86,WSW,250,2.0,3.0,87,0.00,,,0.00,Wunderground v.1.15,2013-03-22 15:15:00,
2013-03-22 11:20:00,28.3,24.6,29.86,West,264,3.0,8.0,86,0.00,,,0.00,Wunderground v.1.15,2013-03-22 15:20:00,
2013-03-22 11:30:00,28.5,24.8,29.86,West,271,2.0,2.0,86,0.00,,,0.00,Wunderground v.1.15,2013-03-22 15:30:00,
2013-03-22 11:40:00,28.6,25.2,29.86,NNE,26,2.0,2.0,87,0.00,,,0.01,Wunderground v.1.15,2013-03-22 15:40:00,
2013-03-22 11:45:00,28.7,25.3,29.87,WSW,239,2.0,2.0,87,0.00,,,0.01,Wunderground v.1.15,2013-03-22 15:45:00,
2013-03-22 11:55:00,28.9,25.5,29.87,NNW,340,2.0,2.0,87,0.00,,,0.01,Wunderground v.1.15,2013-03-22 15:55:00,
2013-03-22 12:00:00,29.1,25.4,29.87,West,263,2.0,2.0,86,0.00,,,0.01,Wunderground v.1.15,2013-03-22 16:00:00,
2013-03-22 12:10:00,29.4,25.7,29.87,WSW,245,2.0,5.0,86,0.00,,,0.01,Wunderground v.1.15,2013-03-22 16:10:00,
2013-03-22 12:15:00,29.4,25.7,29.87,West,273,2.0,5.0,86,0.00,,,0.01,Wunderground v.1.15,2013-03-22 16:15:00,
2013-03-22 12:25:00,29.8,26.4,29.87,West,277,1.0,2.0,87,0.00,,,0.01,Wunderground v.1.15,2013-03-22 16:25:00,
2013-03-22 12:30:00,29.7,26.0,29.87,WNW,301,2.0,3.0,86,0.00,,,0.01,Wunderground v.1.15,2013-03-22 16:30:00,
2013-03-22 12:40:00,29.7,26.6,29.87,SW,236,2.0,4.0,88,0.00,,,0.01,Wunderground v.1.15,2013-03-22 16:40:00,
2013-03-22 12:50:00,29.7,26.6,29.88,WSW,256,2.0,4.0,88,0.00,,,0.01,Wunderground v.1.15,2013-03-22 16:50:00,
2013-03-22 13:00:00,29.6,26.2,29.88,West,259,3.0,3.0,87,0.00,,,0.01,Wunderground v.1.15,2013-03-22 17:00:00,
2013-03-22 13:05:00,29.7,26.0,29.88,West,275,2.0,4.0,86,0.00,,,0.01,Wunderground v.1.15,2013-03-22 17:05:00,
2013-03-22 13:10:00,29.8,26.1,29.88,West,271,2.0,2.0,86,0.00,,,0.01,Wunderground v.1.15,2013-03-22 17:10:00,
2013-03-22 13:20:00,30.1,26.1,29.88,WSW,239,2.0,2.0,85,0.00,,,0.01,Wunderground v.1.15,2013-03-22 17:20:00,
2013-03-22 13:30:00,30.5,26.2,29.88,SW,236,1.0,2.0,84,0.00,,,0.01,Wunderground v.1.15,2013-03-22 17:30:00,
2013-03-22 13:40:00,30.8,26.5,29.88,SSW,195,2.0,2.0,84,0.00,,,0.01,Wunderground v.1.15,2013-03-22 17:40:00,
2013-03-22 13:50:00,30.9,26.3,29.88,WSW,256,3.0,4.0,83,0.00,,,0.01,Wunderground v.1.15,2013-03-22 17:50:00,
2013-03-22 14:00:00,31.3,26.4,29.87,NE,56,3.0,3.0,82,0.00,,,0.01,Wunderground v.1.15,2013-03-22 18:00:00,
2013-03-22 14:10:00,31.1,26.2,29.87,West,259,3.0,6.0,82,0.00,,,0.01,Wunderground v.1.15,2013-03-22 18:10:00,
2013-03-22 14:15:00,31.2,26.3,29.87,SW,233,3.0,6.0,82,0.00,,,0.01,Wunderground v.1.15,2013-03-22 18:15:00,
2013-03-22 14:25:00,31.2,25.7,29.87,West,259,3.0,3.0,80,0.00,,,0.01,Wunderground v.1.15,2013-03-22 18:25:00,
2013-03-22 14:30:00,31.2,26.0,29.87,WSW,238,3.0,3.0,81,0.00,,,0.01,Wunderground v.1.15,2013-03-22 18:30:00,
2013-03-22 14:40:00,31.3,25.8,29.87,WSW,243,2.0,3.0,80,0.00,,,0.01,Wunderground v.1.15,2013-03-22 18:40:00,
2013-03-22 14:45:00,31.2,25.7,29.87,WNW,294,3.0,5.0,80,0.00,,,0.01,Wunderground v.1.15,2013-03-22 18:45:00,
2013-03-22 14:55:00,31.1,25.7,29.87,WSW,253,4.0,4.0,80,0.00,,,0.01,Wunderground v.1.15,2013-03-22 18:55:00,
2013-03-22 15:00:00,31.2,25.4,29.87,West,264,3.0,5.0,79,0.00,,,0.01,Wunderground v.1.15,2013-03-22 19:00:00,
2013-03-22 15:05:00,31.2,25.4,29.87,SW,218,3.0,5.0,79,0.00,,,0.01,Wunderground v.1.15,2013-03-22 19:05:00,
2013-03-22 15:15:00,31.4,25.6,29.88,WSW,255,3.0,4.0,79,0.00,,,0.01,Wunderground v.1.15,2013-03-22 19:15:00,
2013-03-22 15:25:00,31.6,25.8,29.88,WSW,239,2.0,3.0,79,0.00,,,0.01,Wunderground v.1.15,2013-03-22 19:25:00,
2013-03-22 15:35:00,31.3,26.1,29.88,WNW,288,3.0,5.0,81,0.00,,,0.01,Wunderground v.1.15,2013-03-22 19:35:00,
2013-03-22 15:40:00,31.2,26.0,29.88,South,170,3.0,4.0,81,0.00,,,0.01,Wunderground v.1.15,2013-03-22 19:40:00,
2013-03-22 15:50:00,31.2,26.3,29.88,SW,232,3.0,3.0,82,0.00,,,0.01,Wunderground v.1.15,2013-03-22 19:50:00,
2013-03-22 15:55:00,31.1,26.2,29.88,SSW,208,4.0,4.0,82,0.00,,,0.01,Wunderground v.1.15,2013-03-22 19:55:00,
2013-03-22 16:05:00,31.3,26.4,29.88,WSW,243,3.0,5.0,82,0.00,,,0.01,Wunderground v.1.15,2013-03-22 20:05:00,
2013-03-22 16:15:00,31.6,26.1,29.88,WSW,248,3.0,6.0,80,0.00,,,0.01,Wunderground v.1.15,2013-03-22 20:15:00,
2013-03-22 16:20:00,31.6,26.1,29.88,SSW,201,4.0,4.0,80,0.00,,,0.01,Wunderground v.1.15,2013-03-22 20:20:00,
2013-03-22 16:30:00,31.7,26.2,29.89,SW,218,3.0,3.0,80,0.00,,,0.01,Wunderground v.1.15,2013-03-22 20:30:00,
2013-03-22 16:35:00,31.7,26.2,29.89,SW,215,4.0,4.0,80,0.00,,,0.01,Wunderground v.1.15,2013-03-22 20:35:00,
2013-03-22 16:45:00,31.5,26.0,29.89,SW,229,4.0,4.0,80,0.00,,,0.01,Wunderground v.1.15,2013-03-22 20:45:00,
2013-03-22 16:50:00,31.5,26.3,29.89,WSW,242,3.0,4.0,81,0.00,,,0.01,Wunderground v.1.15,2013-03-22 20:50:00,
2013-03-22 17:00:00,31.3,26.1,29.89,WSW,245,4.0,4.0,81,0.00,,,0.01,Wunderground v.1.15,2013-03-22 21:00:00,
2013-03-22 17:10:00,31.3,26.1,29.89,West,262,3.0,4.0,81,0.00,,,0.01,Wunderground v.1.15,2013-03-22 21:10:00,
2013-03-22 17:15:00,31.2,26.0,29.90,WNW,283,3.0,10.0,81,0.00,,,0.01,Wunderground v.1.15,2013-03-22 21:15:00,
2013-03-22 17:25:00,31.0,25.9,29.90,SW,214,4.0,4.0,81,0.00,,,0.01,Wunderground v.1.15,2013-03-22 21:25:00,
2013-03-22 17:30:00,31.0,26.1,29.90,SW,227,3.0,3.0,82,0.00,,,0.01,Wunderground v.1.15,2013-03-22 21:30:00,
2013-03-22 17:40:00,30.9,26.1,29.90,West,271,4.0,6.0,82,0.00,,,0.01,Wunderground v.1.15,2013-03-22 21:40:00,
2013-03-22 17:45:00,30.9,26.1,29.90,SSW,206,4.0,6.0,82,0.00,,,0.01,Wunderground v.1.15,2013-03-22 21:45:00,
2013-03-22 17:55:00,30.9,26.1,29.91,West,270,3.0,6.0,82,0.00,,,0.01,Wunderground v.1.15,2013-03-22 21:55:00,
2013-03-22 18:05:00,30.8,26.0,29.91,SW,235,5.0,5.0,82,0.00,,,0.01,Wunderground v.1.15,2013-03-22 22:05:00,
2013-03-22 18:10:00,30.8,26.2,29.91,SW,236,4.0,4.0,83,0.00,,,0.01,Wunderground v.1.15,2013-03-22 22:10:00,
2013-03-22 18:20:00,30.8,26.5,29.92,SW,230,3.0,6.0,84,0.00,,,0.01,Wunderground v.1.15,2013-03-22 22:20:00,
2013-03-22 18:30:00,30.5,26.5,29.92,SSW,198,3.0,3.0,85,0.00,,,0.01,Wunderground v.1.15,2013-03-22 22:30:00,
2013-03-22 18:35:00,30.5,26.5,29.92,South,177,3.0,3.0,85,0.00,,,0.01,Wunderground v.1.15,2013-03-22 22:35:00,
2013-03-22 18:40:00,30.4,26.7,29.92,West,259,3.0,3.0,86,0.00,,,0.01,Wunderground v.1.15,2013-03-22 22:40:00,
2013-03-22 18:50:00,30.3,26.6,29.92,West,264,3.0,5.0,86,0.00,,,0.01,Wunderground v.1.15,2013-03-22 22:50:00,
2013-03-22 18:55:00,30.2,26.5,29.92,WSW,243,3.0,5.0,86,0.00,,,0.01,Wunderground v.1.15,2013-03-22 22:55:00,
2013-03-22 19:05:00,30.2,26.5,29.92,SW,224,3.0,3.0,86,0.00,,,0.01,Wunderground v.1.15,2013-03-22 23:05:00,
2013-03-22 19:10:00,30.1,26.4,29.92,SW,232,3.0,6.0,86,0.00,,,0.01,Wunderground v.1.15,2013-03-22 23:10:00,
2013-03-22 19:15:00,30.1,26.4,29.93,SW,224,3.0,6.0,86,0.00,,,0.01,Wunderground v.1.15,2013-03-22 23:15:00,
2013-03-22 19:25:00,30.1,26.4,29.93,SW,218,2.0,5.0,86,0.00,,,0.01,Wunderground v.1.15,2013-03-22 23:25:00,
2013-03-22 19:35:00,30.0,26.3,29.94,SW,219,3.0,4.0,86,0.00,,,0.01,Wunderground v.1.15,2013-03-22 23:35:00,
2013-03-22 19:40:00,30.0,26.3,29.94,SW,225,3.0,3.0,86,0.00,,,0.01,Wunderground v.1.15,2013-03-22 23:40:00,
2013-03-22 19:50:00,29.9,25.9,29.94,NNW,338,3.0,6.0,85,0.00,,,0.01,Wunderground v.1.15,2013-03-22 23:50:00,
2013-03-22 19:55:00,29.9,25.9,29.94,WSW,249,4.0,6.0,85,0.00,,,0.01,Wunderground v.1.15,2013-03-22 23:55:00,
2013-03-22 20:00:00,29.9,25.9,29.94,West,273,3.0,3.0,85,0.00,,,0.01,Wunderground v.1.15,2013-03-23 00:00:00,
2013-03-22 20:10:00,29.8,25.8,29.95,WSW,246,3.0,5.0,85,0.00,,,0.01,Wunderground v.1.15,2013-03-23 00:10:00,
2013-03-22 20:20:00,29.7,25.7,29.95,WSW,249,4.0,4.0,85,0.00,,,0.01,Wunderground v.1.15,2013-03-23 00:20:00,
2013-03-22 20:30:00,29.7,25.7,29.96,West,274,3.0,3.0,85,0.00,,,0.01,Wunderground v.1.15,2013-03-23 00:30:00,
2013-03-22 20:35:00,29.7,25.7,29.96,WNW,295,3.0,3.0,85,0.00,,,0.01,Wunderground v.1.15,2013-03-23 00:35:00,
2013-03-22 20:40:00,29.7,25.7,29.96,West,274,2.0,5.0,85,0.00,,,0.01,Wunderground v.1.15,2013-03-23 00:40:00,
2013-03-22 20:50:00,29.7,25.7,29.97,WSW,240,2.0,2.0,85,0.00,,,0.01,Wunderground v.1.15,2013-03-23 00:50:00,
2013-03-22 21:00:00,29.7,25.7,29.97,WSW,250,2.0,2.0,85,0.00,,,0.01,Wunderground v.1.15,2013-03-23 01:00:00,
2013-03-22 21:05:00,29.7,25.7,29.97,West,259,2.0,2.0,85,0.00,,,0.01,Wunderground v.1.15,2013-03-23 01:05:00,
2013-03-22 21:10:00,29.6,25.6,29.97,SSW,208,2.0,2.0,85,0.00,,,0.01,Wunderground v.1.15,2013-03-23 01:10:00,
2013-03-22 21:20:00,29.7,25.5,29.97,SSE,165,2.0,2.0,84,0.00,,,0.01,Wunderground v.1.15,2013-03-23 01:20:00,
2013-03-22 21:25:00,29.7,25.5,29.97,SW,232,2.0,6.0,84,0.00,,,0.01,Wunderground v.1.15,2013-03-23 01:25:00,
2013-03-22 21:35:00,29.7,25.5,29.97,WSW,253,2.0,5.0,84,0.00,,,0.01,Wunderground v.1.15,2013-03-23 01:35:00,
2013-03-22 21:40:00,29.7,25.2,29.97,West,261,2.0,2.0,83,0.00,,,0.01,Wunderground v.1.15,2013-03-23 01:40:00,
2013-03-22 21:45:00,29.7,25.2,29.97,West,278,3.0,3.0,83,0.00,,,0.01,Wunderground v.1.15,2013-03-23 01:45:00,
2013-03-22 21:55:00,29.7,25.2,29.97,North,349,2.0,3.0,83,0.00,,,0.01,Wunderground v.1.15,2013-03-23 01:55:00,
2013-03-22 22:00:00,29.7,25.2,29.97,NW,313,2.0,3.0,83,0.00,,,0.01,Wunderground v.1.15,2013-03-23 02:00:00,
2013-03-22 22:10:00,29.6,25.1,29.98,South,187,2.0,2.0,83,0.00,,,0.01,Wunderground v.1.15,2013-03-23 02:10:00,
2013-03-22 22:20:00,29.6,25.1,29.98,WNW,290,2.0,2.0,83,0.00,,,0.01,Wunderground v.1.15,2013-03-23 02:20:00,
2013-03-22 22:30:00,29.5,25.0,29.97,WSW,248,2.0,3.0,83,0.00,,,0.01,Wunderground v.1.15,2013-03-23 02:30:00,
2013-03-22 22:35:00,29.5,25.0,29.97,WSW,252,2.0,3.0,83,0.00,,,0.01,Wunderground v.1.15,2013-03-23 02:35:00,
2013-03-22 22:45:00,29.5,25.0,29.97,WSW,250,2.0,3.0,83,0.00,,,0.01,Wunderground v.1.15,2013-03-23 02:45:00,
2013-03-22 22:50:00,29.4,24.9,29.98,WSW,248,2.0,4.0,83,0.00,,,0.01,Wunderground v.1.15,2013-03-23 02:50:00,
2013-03-22 23:00:00,29.4,24.9,29.98,NW,322,3.0,4.0,83,0.00,,,0.01,Wunderground v.1.15,2013-03-23 03:00:00,
2013-03-22 23:10:00,29.2,25.0,29.97,SW,228,2.0,2.0,84,0.00,,,0.01,Wunderground v.1.15,2013-03-23 03:10:00,
2013-03-22 23:20:00,29.0,24.8,29.98,WSW,257,3.0,3.0,84,0.00,,,0.01,Wunderground v.1.15,2013-03-23 03:20:00,
2013-03-22 23:30:00,28.9,25.0,29.98,WSW,249,2.0,2.0,85,0.00,,,0.01,Wunderground v.1.15,2013-03-23 03:30:00,
2013-03-22 23:35:00,28.9,25.0,29.98,West,278,2.0,5.0,85,0.00,,,0.01,Wunderground v.1.15,2013-03-23 03:35:00,
2013-03-22 23:40:00,28.9,25.0,29.98,WSW,239,1.0,3.0,85,0.00,,,0.01,Wunderground v.1.15,2013-03-23 03:40:00,
2013-03-22 23:50:00,28.9,25.0,29.98,WSW,255,2.0,2.0,85,0.00,,,0.01,Wunderground v.1.15,2013-03-23 03:50:00,